Flag for U.S.A. Weather past 2 weeks in Oakland, California, U.S.A.

Now
59 °F

Clear.


Feels Like: 59 °F
Forecast: 56 / 68 °F
Wind: No wind

Location: Metro Oakland International Airport

Current Time: Oct 21, 2014 at 11:34:46 PM

Latest Report: Oct 21, 2014 at 10:53 PM


Visibility: 10 mi

Pressure: 30.04 "Hg

Humidity: 72%

Dew point: 50 °F

Location of OaklandLocation

Historic Weather in Oakland — Graph

°F

Oakland temperature yesterday

Maximum temperature yesterday: 69 °F (at 3:53 PM)
Minimum temperature yesterday: 59 °F (at 11:53 PM)
Average temperature yesterday: 64 °F

Past Weeks' High & Low Weather Summary

 TemperatureHumidityPressure
High86 °F (Oct 12, 2:53 PM)96% (Oct 7, 7:53 AM)30.11 "Hg (Oct 7, 7:53 AM)
Low50 °F (Oct 21, 6:53 AM)14% (Oct 12, 2:53 PM)27.00 "Hg (Oct 16, 10:20 PM)
Average63 °F73%29.95 "Hg
* Reported Oct 6 9:53 PM — Oct 21 9:53 PM, Oakland, Weather by CustomWeather, © 2014

Note: Actual official high and low records may vary slightly from our data, if they occured in-between our weather recording intervals... More about our weather records

Advertising

Oakland weather history for previous 24 hours

 ConditionsComfort  
Time TempWeatherWind HumidityBarometerVisibility
9:53 PM
Oct 21
60 °FClear.7 mph69%30.04 "Hg10 mi
8:53 PM61 °FClear.7 mph67%30.03 "Hg10 mi
7:53 PM62 °FPassing clouds.7 mph70%30.03 "Hg10 mi
6:53 PM63 °FScattered clouds.13 mph70%30.01 "Hg10 mi
5:53 PM66 °FScattered clouds.16 mph61%30.02 "Hg10 mi
4:53 PM67 °FScattered clouds.15 mph57%30.02 "Hg10 mi
3:53 PM68 °FScattered clouds.14 mph49%30.03 "Hg10 mi
2:53 PM70 °FPassing clouds.17 mph42%30.03 "Hg10 mi
1:53 PM69 °FPassing clouds.13 mph39%30.04 "Hg10 mi
12:53 PM66 °FPassing clouds.12 mph49%30.07 "Hg10 mi
11:53 AM65 °FScattered clouds.13 mph59%30.09 "Hg10 mi
10:53 AM63 °FScattered clouds.10 mph60%30.10 "Hg10 mi
9:53 AM62 °FScattered clouds.7 mph67%30.10 "Hg10 mi
8:53 AM59 °FScattered clouds.5 mph81%30.11 "Hg10 mi
7:53 AM55 °FPassing clouds.No wind83%30.11 "Hg10 mi
6:53 AM50 °FPassing clouds.8 mph83%30.09 "Hg10 mi
5:53 AM51 °FPassing clouds.3 mph83%30.07 "Hg10 mi
4:53 AM52 °FClear.No wind77%30.08 "Hg10 mi
3:53 AM52 °FClear.No wind83%30.07 "Hg10 mi
2:53 AM56 °FClear.5 mph77%30.08 "Hg10 mi
1:53 AM55 °FClear.No wind77%30.07 "Hg10 mi
12:53 AM55 °FPassing clouds.3 mph77%30.06 "Hg10 mi
11:53 PM
Oct 20
59 °FPassing clouds.8 mph75%30.06 "Hg10 mi
Weather by CustomWeather, © 2014

See weather overviewHow to use our weather pages